Regional Weather Roundup
Issued by NWS Goodland, KS

Home | Current Version | Previous Version | Graphics & Text | Print | Product List | Glossary On
Versions: 1 2 3 4 5 6 7 8 9 10 11 12 13 14 15 16 17 18 19 20 21 22 23 24 25 26 27 28 29 30 31 32 33 34 35 36 37 38 39 40 41 42 43 44 45 46 47 48 49 50
000
ASUS43 KGLD 241808
RWRGLD

GOODLAND FORECAST AREA HOURLY WEATHER ROUNDUP
NATIONAL WEATHER SERVICE GOODLAND KS
1200 PM MDT MON APR 24 2017

...OFFICIAL OBSERVATIONS...

CITY           SKY/WX    TMP DP  RH WIND       PRES   REMARKS
GOODLAND KS    SUNNY     71  40  32 N18G28    29.62F
HILL CITY KS   CLOUDY    74  43  32 NW17G24   29.55S
IMPERIAL NEB   SUNNY     70  40  33 N22G32    29.59S
MCCOOK NEB     SUNNY     75  43  31 N13G21    29.54F
AKRON CO       CLOUDY    64  31  28 N20G25    29.68S
BURLINGTON CO  NOT AVBL
LIMON CO       SUNNY     65  35  33 N13G21    29.69F
$$

...UNOFFICIAL OBSERVATIONS...

CITY           SKY/WX    TMP DP  RH WIND       PRES   REMARKS
LENORA KS        N/A     71  32  23 MISG        N/A
NORTON KS      SUNNY     70  36  28 W9G18     29.55
SHARON SPRINGS   N/A     72  43  34 NW14G21     N/A
TRENTON NEB      N/A     71  32  23 N12         N/A
$$




USA.gov is the U.S. government's official web portal to all federal, state and local government web resources and services.